This is the latest recevied weather packets stored in our database for station/object KC9GSD. If no packets are shown the sender has not sent any weather packets the latest 10 day(s).
| Time | Temp. | Humidity | Pressure | Rain* | Wind** | Luminosity | Snow |
|---|---|---|---|---|---|---|---|
| 1777659763 | 18.89° C | 54% | 1014.3 hPa | 0 mm | - | 497 W/m² | - |
| 1777659459 | 18.33° C | 49% | 1014.4 hPa | 0 mm | - | 545 W/m² | - |
| 1777659157 | 18.33° C | 52% | 1014.4 hPa | 0 mm | - | 480 W/m² | - |
| 1777658854 | 17.78° C | 50% | 1014.3 hPa | 0 mm | - | 479 W/m² | - |
| 1777658550 | 17.78° C | 47% | 1014.4 hPa | 0 mm | - | 395 W/m² | - |
| 1777658247 | 17.78° C | 54% | 1014.4 hPa | 0 mm | - | 425 W/m² | - |
| 1777657944 | 18.33° C | 49% | 1014.5 hPa | 0 mm | - | 347 W/m² | - |
| 1777657338 | 18.89° C | 49% | 1014.5 hPa | 0 mm | - | 537 W/m² | - |
| 1777657036 | 18.89° C | 51% | 1014.7 hPa | 0 mm | - | 385 W/m² | - |
| 1777656733 | 17.78° C | 48% | 1014.9 hPa | 0 mm | - | 675 W/m² | - |
| 1777656428 | 17.78° C | 51% | 1014.9 hPa | 0 mm | - | 590 W/m² | - |
| 1777656123 | 17.78° C | 55% | 1015 hPa | 0 mm | - | 563 W/m² | - |
| 1777655820 | 17.22° C | 61% | 1015.1 hPa | 0 mm | - | 473 W/m² | - |
| 1777655516 | 17.22° C | 55% | 1014.9 hPa | 0 mm | - | 413 W/m² | - |
| 1777655213 | 16.67° C | 58% | 1014.9 hPa | 0 mm | - | 348 W/m² | - |
| 1777654911 | 16.67° C | 58% | 1015 hPa | 0 mm | - | 283 W/m² | - |
| 1777654608 | 16.67° C | 56% | 1014.7 hPa | 0 mm | - | 274 W/m² | - |
| 1777654305 | 16.67° C | 57% | 1014.7 hPa | 0 mm | - | 252 W/m² | - |
| 1777654003 | 16.67° C | 63% | 1014.8 hPa | 0 mm | - | 243 W/m² | - |
| 1777653396 | 16.67° C | 61% | 1014.8 hPa | 0 mm | - | 309 W/m² | - |
| 1777653093 | 16.67° C | 62% | 1014.7 hPa | 0 mm | - | 320 W/m² | - |
| 1777652789 | 17.22° C | 60% | 1014.7 hPa | 0 mm | - | 367 W/m² | - |
| 1777652486 | 16.67° C | 68% | 1014.7 hPa | 0 mm | - | 350 W/m² | - |
| 1777652183 | 16.11° C | 67% | 1014.7 hPa | 0 mm | - | 309 W/m² | - |
| 1777651880 | 16.67° C | 63% | 1014.9 hPa | 0 mm | - | 353 W/m² | - |
* Rain latest hour (hover to see other rain measurements)
** Current wind speed in m/s (hover to see current wind gust speed)